Location: Sternwarte ZA, Rosenfeld-Brittheim
(48.2889°N, 8.6789°E)
Time: 06:26:38
(UTC+01:00)

ISS - Pass Details

Date: 24 November 2020
Orbit: 418 x 421 km, 51.6° (Epoch: 26 November)

Event Time Altitude Azimuth Distance (km) Brightness Sun altitude
Rises 19:43:53 0° 270° (W) 2,362 1.2 -30.5°
Reaches altitude 10° 19:46:02 10° 277° (W) 1,499 -0.1 -30.8°
Enters shadow 19:46:30 13° 279° (W) 1,319 -0.4 -30.9°
